View from above orbital plane
|
View from above satellite
|
Ground track
|
The orbit data is extracted from the following two-line orbital elements,
1 25544U 98067A 21023.69604218 .00016717 00000-0 10270-3 0 9090
2 25544 51.6455 337.3954 0002224 286.8312 73.2594 15.48904870 26196
Epoch (UTC): | 23 January 2021 16:42:18 |
Eccentricity: | 0.0002224 |
inclination: | 51.6455° |
perigee height: | 418 km |
apogee height: | 421 km |
right ascension of ascending node: | 337.3954° |
argument of perigee: | 286.8312° |
revolutions per day: | 15.48904870 |
mean anomaly at epoch: | 73.2594° |
orbit number at epoch: | 2619 |
The dashed part of the orbit path shows where the satellite is in the earth's shadow,
|
|